#timestamp,LO_Frequency,Hit,StdDev 
1620280815.0,286046998.6,N
1620280815.9,286046998.6,N
1620280835.8,286046998.4,N
1620280855.6,286046998.9,N
1620280875.4,286046999.3,N
1620280895.3,286046999.3,N
1620280915.1,286046999.3,N
1620280935.9,286046999.3,N
1620280955.7,286046999.1,N
1620280975.5,286046999.1,N
1620280995.4,286046996.8,Y
1620281015.2,286046999.3,P
1620281035.0,286046998.3,P
1620281035.9,286046998.3,P
1620281055.8,286046999.0,N
1620281075.6,286046998.8,N
1620281095.5,286046998.7,Y
1620281115.3,286047000.2,P
1620281135.1,286047001.1,N
1620281155.9,286046998.6,N
1620281175.7,286046998.3,N
1620281195.6,286046998.5,N
1620281215.4,286046998.3,N
1620281235.2,286046998.4,N
1620281255.1,286046998.6,N
1620281256.0,286046998.6,N
1620281275.8,286046998.5,N
1620281295.6,286046998.4,N
1620281315.5,286046998.8,N
1620281335.3,286046998.8,N
1620281355.2,286046998.7,N
1620281375.9,286046998.9,N
1620281395.7,286046998.4,N
1620281415.6,286046999.3,N
1620281435.4,286046999.0,N
1620281455.2,286046999.3,N
1620281475.1,286046999.4,N
1620281476.0,286046999.4,N
1620281495.8,286046999.1,N
1620281515.7,286046999.2,N
1620281535.5,286046999.5,N
1620281555.3,286046996.9,Y
1620281575.2,286046999.4,P
1620281595.0,286046998.7,P
1620281595.9,286046998.7,P
1620281615.8,286046999.4,N
1620281635.6,286046999.0,Y
1620281655.4,286047000.9,P
1620281675.3,286046998.6,N
1620281695.1,286046998.4,N
1620281715.9,286046999.5,N
1620281735.7,286046996.7,Y
1620281755.5,286046999.6,P
1620281775.4,286046997.3,P
1620281795.2,286046996.5,P
1620281815.0,286046997.5,N
1620281815.9,286046997.5,N
1620281835.8,286046996.5,Y
1620281855.6,286046998.5,P
1620281875.5,286046998.6,P
1620281895.3,286046998.6,P
1620281915.1,286046998.6,Y
1620281935.9,286046999.7,P
1620281955.7,286047002.6,P
1620281975.5,286047001.8,N
1620281995.4,286047001.5,N
1620282015.2,286047003.7,N
1620282035.1,286047003.6,N
1620282036.0,286047003.6,N
1620282055.8,286047005.7,Y
1620282075.6,286047004.3,P
1620282095.5,286047003.1,N
1620282115.3,286047003.0,N
1620282135.2,286047003.0,Y
1620282155.9,286047002.8,P
1620282175.7,286047000.1,N
1620282195.6,286046999.8,N
1620282215.4,286047002.8,N
1620282235.2,286047000.3,N
1620282255.1,286047000.5,N
1620282256.0,286047000.5,N
1620282275.8,286047000.2,N
1620282295.7,286047000.1,N
1620282315.5,286047000.9,N
1620282335.3,286047000.6,N
1620282355.2,286047000.2,N
1620282375.0,286047000.6,N
1620282375.9,286047000.6,N
1620282395.8,286047000.6,N
1620282415.6,286047000.9,N
1620282435.4,286047000.7,N
1620282455.3,286047001.0,N
1620282475.1,286047000.8,N
1620282495.8,286047000.8,N
1620282515.7,286047000.6,N
1620282535.5,286047000.7,N
1620282555.4,286047000.4,N
1620282575.2,286046998.1,N
1620282595.0,286046998.5,N
1620282595.9,286046998.5,N
1620282615.8,286046998.5,N
1620282635.6,286047000.7,N
1620282655.4,286047000.7,N
1620282675.3,286047000.8,N
1620282695.1,286047000.8,N
1620282715.9,286047000.8,N
1620282735.7,286047000.8,N
1620282755.5,286047001.1,N
1620282775.4,286047001.2,N
1620282795.2,286047001.2,N
1620282815.1,286046998.5,N
1620282816.0,286046998.5,N
1620282835.8,286046999.2,N
1620282885.7,286046998.9,E
1620282895.6,286046998.6,N
1620282915.4,286046998.8,P
1620282935.3,286046998.7,P
1620282955.1,286046998.2,Y
1620282975.8,286046999.9,P
1620282995.7,286047000.1,N
1620283015.5,286047000.7,N
1620283035.4,286047001.2,N
1620283055.2,286047000.8,N
1620283075.0,286046998.2,N
1620283075.9,286046998.2,N
1620283095.8,286046999.0,N
1620283115.6,286046998.9,N
1620283135.4,286046998.4,N
1620283155.3,286046998.3,N
1620283175.1,286046998.3,N
1620283195.9,286046999.0,N
1620283215.7,286046998.6,N
1620283235.5,286046998.3,N
1620283255.4,286046998.7,N
1620283275.2,286046998.9,N
1620283295.0,286046998.9,N
1620283295.9,286046998.9,N
1620283315.8,286046998.9,N
1620283335.6,286046999.6,N
1620283355.5,286046999.0,N
1620283375.3,286046999.3,N
1620283395.1,286046997.1,Y
1620283415.9,286046998.7,P
1620283435.7,286046999.4,P
1620283455.6,286046996.5,P
1620283475.4,286046999.2,N
1620283495.2,286046999.4,N
1620283515.1,286046999.6,N
1620283516.0,286046999.6,N
1620283535.8,286046996.5,Y
1620283555.7,286046999.3,P
1620283575.5,286046999.0,P
1620283595.3,286046996.5,P
1620283615.2,286046999.5,N
1620283635.0,286046997.0,N
1620283635.9,286046997.0,N
1620283655.7,286046996.9,N
1620283675.6,286046997.1,N
1620283695.4,286046997.0,N
1620283715.3,286046997.0,N
1620283735.1,286046999.6,N
1620283736.0,286046999.6,N
1620283755.8,286046997.1,N
1620283775.7,286046996.6,N
1620283795.5,286046997.2,N
1620283815.3,286046997.7,N
1620283835.2,286046996.8,N
1620283855.0,286046998.0,N
1620283855.9,286046998.0,N
1620283875.8,286046997.9,N
1620283895.6,286046997.2,N
1620283915.4,286046997.2,N
1620283935.3,286046997.9,N
1620283955.1,286046997.8,N
1620283975.9,286046997.8,N
1620283995.7,286046997.3,N
1620284015.5,286046997.3,N
1620284035.4,286046997.9,N
1620284055.2,286046995.0,Y
1620284075.0,286046998.9,P
1620284075.9,286046998.9,N
1620284095.8,286046998.9,N
1620284115.6,286046998.6,N
1620284135.5,286046998.3,Y
1620284155.3,286047000.2,P
1620284175.1,286047000.9,N
1620284195.9,286047001.2,N
1620284215.7,286046998.5,N
1620284235.6,286047001.2,N
1620284255.4,286047001.1,N
1620284275.2,286046998.3,N
1620284295.1,286046998.6,N
1620284296.0,286046998.6,N
1620284315.8,286046998.5,N
1620284335.6,286046998.3,N
1620284355.5,286046998.1,N
1620284375.3,286047001.2,N
1620284395.2,286047001.2,N
